Flag for U.S.A. Weather past 2 weeks in Reston, Virginia, U.S.A.

Now
51 °F

Sunny.


Feels Like: 50 °F
Forecast: 37 / 65 °F
Wind: 5 mph from East

Location: Washington-Dulles International Airport

Current Time: Apr 1, 2015 at 8:13:31 PM

Latest Report: Apr 1, 2015 at 7:52 PM


Visibility: 10 mi

Pressure: 30.18 "Hg

Humidity: 42%

Dew point: 29 °F

Location of RestonLocation

Historic Weather in Reston — Graph

°F

Reston temperature yesterday

Maximum temperature yesterday: 67 °F (at 1:52 PM)
Minimum temperature yesterday: 38 °F (at 6:52 AM)
Average temperature yesterday: 52 °F

Past Weeks' High & Low Weather Summary

 TemperatureHumidityPressure
High74 °F (Mar 26, 3:52 PM)96% (Mar 21, 6:52 AM)30.42 "Hg (Mar 21, 6:52 AM)
Low22 °F (Mar 29, 5:52 AM)16% (Mar 29, 5:52 PM)29.57 "Hg (Mar 31, 3:52 PM)
Average42 °F51%30.09 "Hg
* Reported Mar 17 6:52 PM — Apr 1 6:52 PM, Reston, Weather by CustomWeather, © 2015

Note: Actual official high and low records may vary slightly from our data, if they occured in-between our weather recording intervals... More about our weather records

Advertising

Reston weather history for previous 24 hours

 ConditionsComfort  
Time TempWeatherWind HumidityBarometerVisibility
6:52 PM
Wed, Apr 1
56 °FSunny.6 mph33%30.16 "Hg10 mi
5:52 PM57 °FPassing clouds.9 mph31%30.15 "Hg10 mi
4:52 PM57 °FPassing clouds.No wind28%30.15 "Hg10 mi
3:52 PM57 °FScattered clouds.14 mph29%30.15 "Hg10 mi
2:52 PM56 °FPassing clouds.13 mph32%30.15 "Hg10 mi
1:52 PM53 °FPassing clouds.3 mph31%30.16 "Hg10 mi
12:52 PM51 °FSunny.7 mph33%30.16 "Hg10 mi
11:52 AM49 °FSunny.8 mph36%30.16 "Hg10 mi
10:52 AM46 °FSunny.7 mph40%30.17 "Hg10 mi
9:52 AM44 °FPassing clouds.13 mph49%30.16 "Hg10 mi
8:52 AM41 °FSunny.9 mph58%30.14 "Hg10 mi
7:52 AM36 °FClear.5 mph70%30.11 "Hg10 mi
6:52 AM32 °FClear.7 mph75%30.07 "Hg10 mi
5:52 AM33 °FClear.6 mph75%30.03 "Hg10 mi
4:52 AM34 °FClear.No wind76%30.00 "Hg10 mi
3:52 AM38 °FClear.8 mph68%29.98 "Hg10 mi
2:52 AM39 °FClear.9 mph67%29.97 "Hg10 mi
1:52 AM40 °FPassing clouds.9 mph65%29.94 "Hg10 mi
12:52 AM41 °FPassing clouds.17 mph62%29.93 "Hg10 mi
11:52 PM
Tue, Mar 31
44 °FPassing clouds.20 mph63%29.89 "Hg10 mi
10:52 PM46 °FPassing clouds.16 mph71%29.85 "Hg10 mi
9:52 PM49 °FPassing clouds.16 mph66%29.81 "Hg10 mi
8:52 PM51 °FPassing clouds.15 mph66%29.77 "Hg10 mi
Weather by CustomWeather, © 2015

See weather overviewHow to use our weather pages